Regional Weather Roundup
Issued by NWS Newport/Morehead, NC

Current Version | Previous Version | Text Only | Print | Product List | Glossary On
Versions: 1 2 3 4 5 6 7 8 9 10 11 12 13 14 15 16 17 18 19 20 21 22 23 24 25 26 27 28 29 30 31 32 33 34 35 36 37 38 39 40 41 42 43 44 45 46 47 48 49 50
004
ASUS42 KMHX 060913
RWRMHX
WEATHER ROUNDUP FOR EASTERN NORTH CAROLINA
NATIONAL WEATHER SERVICE NEWPORT/MOREHEAD CITY NC
500 AM EDT FRI MAY 06 2016

NOTE: "FAIR" INDICATES FEW OR NO CLOUDS BELOW 12,000 FEET
WITH NO SIGNIFICANT WEATHER AND/OR OBSTRUCTIONS TO VISIBILITY

NCZ015>017-031-032-045>047-102-103-061000-
NORTH COAST

CITY           SKY/WX    TMP DP  RH WIND       PRES   REMARKS
EDENTON        CLOUDY    53  53 100 CALM      29.64F
ELIZABETH CITY LGT RAIN  51  49  92 W5        29.63S
KITTY HAWK     CLOUDY    51  49  93 N3        29.61S
MANTEO         CLOUDY    52  50  93 N5        29.63S

$$

NCZ045>047-081-094-103-104-061000-
CENTRAL COAST

CITY           SKY/WX    TMP DP  RH WIND       PRES   REMARKS
FRISCO         MOCLDY    53  49  86 NW6       29.63S
SWANQUARTER    NOT AVBL

$$

NCZ095-097-098-100-101-061000-
SOUTHERN COAST

CITY           SKY/WX    TMP DP  RH WIND       PRES   REMARKS
BEAUFORT       PTCLDY    52  49  89 W8        29.65R
CEDAR ISLAND   NOT AVBL
JACKSONVILLE   CLOUDY    48  46  93 SW3       29.66R
PINEY ISLAND   MOSUNNY  N/A N/A N/A SW6       29.64R
WILMINGTON     CLEAR     48  44  86 W10       29.68R


$$

NCZ011>013-027>030-043-044-078>080-089-090>093-098-061000-
COASTAL PLAIN

CITY           SKY/WX    TMP DP  RH WIND       PRES   REMARKS
AHOSKIE        LGT RAIN  50  49  97 CALM      29.64F
CLINTON        CLOUDY    50  50 100 W6        29.67S FOG
ELIZABETHTOWN  CLOUDY    51  46  83 W5        29.68S
GOLDSBORO      LGT RAIN  52  52 100 W8        29.63R
GREENVILLE     CLOUDY    52  52 100 CALM      29.67S
HAVELOCK       MOCLDY    51  48  89 W8        29.66S
KENANSVILLE    CLOUDY    50  48  95 CALM      29.67R FOG
KINSTON        CLOUDY    51  51  98 SW8       29.65R FOG
NEW BERN       CLOUDY    51  49  92 SW5       29.66S
RICHLANDS      CLOUDY    50  48  93 SW6       29.66S
ROCKY MOUNT    LGT RAIN  51  50  96 N8        29.64S
WASHINGTON     CLOUDY    51  50  96 CALM      29.63S
WHITEVILLE     NOT AVBL

$$

AMZ130-135-150-152-154-156-158-170-250-252-270-ANZ085-086-088-633-658-670-061000-
MARINE OBSERVATIONS

STATION/POSITION TIME  TEMP    WIND        PRES    WAVE   SWELL
                       AIR SEA DIR/SP/G            HT/PER HT/PER
                 (UTC) (F)     (DEG/KT/KT) (MB)    (FT/S) (FT/S)
CHESAPEAKE LIGHT 0900   49      10/ 11/ 12 1003.6
64 E VA BEACH    0850   49 51  320/ 12/ 14 1001.7    7/ 8   7/ 8
DUCK             0800   52 61  320/  7/  8 1002.5
2 E DUCK         0811      60                N/A     6/ 8
OREGON INLET     0800   51 60  350/  3/  6 1002.8
13E OREGON INLT  0900      55                N/A     6/ 8   7/ 8
HATTERAS CG      0800   56 66  310/  7/ 10 1002.8
DIAMOND BUOY     0850   57 77  320/  4/  8 1003.6    5/ 8   5/ 8
CAPE LOOKOUT     0900   54     270/ 12/ 14 1003.7
BEAUFORT LAB     0800   53 67  300/  7/ 10 1002.8
30 SE NEW RVR IN 0825      72                N/A     5/ 7
27 SE WRIGHTSVLE 0808   57 72  300/ 14/ 19 1004.2
5 SE WRIGHTSVLE  0808   54 69  300/ 14/ 19 1005.3
225 S CAPE HAT   0850   69 73  270/ 10/ 14 1005.3    8/ 9   8/ 9
41 SE CHARLESTON 0850   59 72  310/ 16/ 21 1006.4    4/ 6

$$




USA.gov is the U.S. government's official web portal to all federal, state and local government web resources and services.